www.pogodaiklimat.ru
ПОГОДА на Роти
Время
(UTC), дата
15 15.02
18 15.02
21 15.02
00 16.02
03 16.02
06 16.02
09 16.02
12 16.02
15 16.02
18 16.02
21 16.02
00 17.02
03 17.02
06 17.02
09 17.02
12 17.02
15 17.02
18 17.02
21 17.02
00 18.02
03 18.02
06 18.02
09 18.02
12 18.02
15 18.02
21 18.02
00 19.02
03 19.02
06 19.02
09 19.02
12 19.02
15 19.02
18 19.02
21 19.02
00 20.02
03 20.02
06 20.02
09 20.02
12 20.02
15 20.02
18 20.02
21 20.02
00 21.02
03 21.02
06 21.02
09 21.02
12 21.02
15 21.02
18 21.02
21 21.02
00 22.02
03 22.02
06 22.02
09 22.02
12 22.02
Ветер
(напр.,м/с)
Видим. Явления Облачность Т
(С)
Тd
(С)
f
(%)
Тe
(С)
Тes
(С)
Комфортность P
(гПа)
Po
(гПа)
Тmin
(С)
Tmax
(С)
R
(мм)
R24
(мм)
S
(см)
штиль 0 10 км 6/5 600 м
[Cu hum Ci fib]
+25.0 +24.7 98 +35 +35 очень
душно
1016.0 995.0
штиль 0 10 км 4/3 600 м
[Cu hum Ci fib]
+24.4 +24.1 98 +34 +34 очень
душно
1014.9 993.9
штиль 0 10 км 5/4 600 м
[Cu hum Ci fib]
+24.0 +23.7 98 +33 +33 очень
душно
1015.7 994.2
З 2 10 км 1/1 600 м
[Cu hum Ci fib]
+27.8 +25.5 87 +41 +48 опасность
перегрева
1016.8 995.8 +24.0 19
З 2 10 км 3/3 600 м
[Cu hum Ci fib]
+31.4 +25.1 69 +45 +61 опасность
перегрева
1016.3 995.3
СЗ 2 10 км слаб. дождь 8/5 540 м
[Cu med, cong As trans Ci fib]
+29.6 +27.5 89 +48 +54 опасность
перегрева
1014.2 993.2 0.0
З 2 10 км {дождь} 5/4 600 м
[Cu hum Ci fib]
+31.2 +26.1 74 +47 +47 опасность
перегрева
1013.6 992.7 0.0
ЮЗ 1 10 км {дождь} 1/1 600 м
[Cu hum Ci fib]
+27.2 +25.2 89 +39 +39 очень
душно
1015.8 994.7 +32.8 0.0
штиль 0 10 км 1/1 600 м
[Cu hum Ci fib]
+26.0 +24.8 93 +37 +37 очень
душно
1015.9 994.9
З 2 10 км 1/1 600 м
[Cu hum Ci fib]
+25.0 +24.4 96 +35 +35 очень
душно
1015.3 994.3
штиль 0 10 км 1/1 600 м
[Cu hum Ci fib]
+24.6 +24.0 96 +34 +34 очень
душно
1015.3 994.3
ЮЗ 2 10 км 3/1 600 м
[Cu hum Ci fib]
+28.2 +25.3 84 +41 +47 опасность
перегрева
1016.7 995.6 +24.0 0.0
СЗ 2 10 км 6/5 540 м
[Cu med, cong Ci fib]
+32.0 +26.5 73 +49 +60 опасность
перегрева
1016.0 995.0
СЗ 2 10 км 6/5 540 м
[Cu med, cong As trans Ci fib]
+31.4 +27.3 79 +50 +58 опасность
перегрева
1013.9 992.9
ЮЗ 4 10 км 6/5 540 м
[Cu med, cong As trans Ci fib]
+30.4 +26.5 80 +47 +47 опасность
перегрева
1014.1 993.1
ЮЗ 2 10 км 5/4 600 м
[Cu hum Ci fib]
+27.8 +25.5 87 +41 +41 опасность
перегрева
1016.4 995.4 +32.8
С 1 10 км 6/5 600 м
[Cu hum Ci fib]
+26.6 +25.5 94 +39 +39 очень
душно
1017.0 995.6
ЮЗ 1 10 км 4/3 600 м
[Cu hum Ci fib]
+25.8 +24.9 95 +37 +37 очень
душно
1014.6 993.6
штиль 0 10 км 3/1 600 м
[Cu hum Ci fib]
+25.2 +24.2 94 +35 +35 очень
душно
1014.1 993.1
З 2 10 км 5/1 600 м
[Cu hum Ci fib]
+28.6 +25.8 85 +43 +49 опасность
перегрева
1015.4 994.4 +25.0
СЗ 3 10 км гроза без осадков 8/5 540 м
[Cb cap As trans Ci fib]
+30.6 +26.4 78 +47 +53 опасность
перегрева
1015.7 994.7
ЮЗ 3 10 км {дождь} 8/5 540 м
[Cu hum As trans Ci sp]
+28.8 +25.4 82 +42 +47 опасность
перегрева
1013.4 992.4 0.0
ЮЗ 3 10 км 5/4 600 м
[Cu hum Ci fib]
+30.2 +25.6 76 +44 +45 опасность
перегрева
1012.5 991.6
штиль 0 10 км 6/3 600 м
[Cu hum Ci sp]
+27.6 +26.2 92 +42 +42 опасность
перегрева
1014.4 993.4 +33.0
штиль 0 10 км 4/3 600 м
[Cu hum Ci fib]
+26.2 +25.3 95 +38 +38 очень
душно
1015.8 994.8
штиль 0 10 км 1/1 600 м
[Cu hum Ci fib]
+25.0 +24.1 95 +34 +34 очень
душно
1013.8 992.8
З 4 10 км 4/4 600 м
[Cu hum Ci fib]
+28.4 +26.1 87 +43 +46 опасность
перегрева
1015.3 994.3 +25.0 0.0
З 4 10 км {дождь} 6/4 540 м
[Cu hum Ac As Ci fib]
+29.2 +26.6 86 +45 +53 опасность
перегрева
1015.0 994.0 3
СЗ 4 10 км гроза, ливневой дождь 8/5 540 м
[Cb cap As trans Ci fib]
+31.2 +27.1 79 +49 +53 опасность
перегрева
1012.7 991.8 3
З 4 10 км гроза без осадков 9/5 540 м
[Cb cap As trans Ci fib]
+31.6 +26.0 72 +47 +47 опасность
перегрева
1012.5 991.6 0.0
штиль 0 10 км {гроза, дождь} 6/3 600 м
[Cu hum Ci fib]
+26.6 +25.2 92 +38 +38 очень
душно
1013.5 992.5 +32.6 2
штиль 0 10 км 5/4 600 м
[Cu hum Ci fib]
+26.4 +25.5 95 +39 +39 очень
душно
1014.9 993.9
СЗ 1 10 км зарница {дождь} 6/5 540 м
[Cb cap As trans Ci fib]
+26.6 +25.2 92 +38 +38 очень
душно
1013.9 992.9 0.2
штиль 0 10 км 5/4 540 м
[Cu med, cong Ci fib]
+26.0 +25.1 95 +37 +37 очень
душно
1013.6 992.6
СЗ 2 10 км 6/3 600 м
[Cu hum Ci fib]
+27.6 +25.3 87 +40 +45 очень
душно
1015.9 994.9 +25.3 5
С 3 10 км гроза без осадков 8/5 600 м
[Cb cap As trans Ci fib]
+30.4 +26.1 78 +46 +52 опасность
перегрева
1015.1 994.1
СЗ 5 10 км 8/5 600 м
[Cu med, cong As trans Ci fib]
+30.6 +25.4 74 +45 +48 опасность
перегрева
1013.1 992.2
С 2 10 км 6/4 600 м
[Cu hum As trans Ci fib]
+30.6 +26.4 78 +47 +47 опасность
перегрева
1013.3 992.4
СЗ 3 10 км 5/3 600 м
[Cu hum Ci fib]
+26.6 +24.2 87 +37 +37 очень
душно
1015.1 994.1 +31.6
СЗ 3 10 км 4/3 600 м
[Cu hum Ci fib]
+27.0 +25.9 94 +40 +40 очень
душно
1016.5 995.5
штиль 0 10 км 4/3 600 м
[Cu hum Ci fib]
+26.6 +25.2 92 +38 +38 очень
душно
1015.7 994.7
штиль 0 10 км 4/3 600 м
[Cu hum Ci fib]
+25.8 +24.6 93 +36 +36 очень
душно
1015.6 994.6
СЗ 2 10 км 8/5 600 м
[Cu med, cong As trans Ci fib]
+28.2 +25.9 87 +42 +45 опасность
перегрева
1017.2 996.2 +25.9
ЮЗ 3 10 км {дождь} 8/5 600 м
[Cu med, cong As trans Ci fib]
+27.6 +25.6 89 +41 +47 опасность
перегрева
1017.3 996.2 16
СЗ 2 10 км в посл. час дождь 9/3 540 м
[Cu hum As op Ci fib]
+25.4 +24.8 96 +36 +43 очень
душно
1015.7 994.7 24
СЗ 2 10 км слаб. дождь 9/3 540 м
[Cu hum As op Ci fib]
+25.8 +24.9 95 +37 +37 очень
душно
1015.5 994.5 0.5
СЗ 2 10 км {дождь} 9/3 540 м
[Cu hum Ac As Ci fib]
+25.4 +24.8 96 +36 +36 очень
душно
1016.6 995.6 +31.6 0.0
штиль 0 10 км 9/4 540 м
[Cu hum Ac As Ci fib]
+25.2 +24.6 96 +35 +35 очень
душно
1018.2 997.1
штиль 0 10 км 9/4 540 м
[Cu hum Ac As Ci fib]
+24.8 +24.2 96 +34 +34 очень
душно
1015.8 994.8
штиль 0 10 км 1/1 600 м
[Cu hum Ci fib]
+24.0 +23.7 98 +33 +33 очень
душно
1015.6 994.1
СЗ 2 10 км 5/5 600 м
[Cu hum Ci fib]
+27.6 +24.1 81 +38 +42 очень
душно
1016.7 995.7 +24.0 40
С 2 10 км 8/6 600 м
[Cu hum Ac trans Ci fib]
+30.0 +25.7 78 +45 +51 опасность
перегрева
1016.8 995.7
С 2 10 км 9/6 540 м
[Cu med, cong Ac trans Ci fib]
+30.2 +25.9 78 +45 +49 опасность
перегрева
1013.7 992.7
С 3 10 км 9/5 540 м
[Cu hum Ac As Ci fib]
+28.8 +25.7 83 +43 +43 опасность
перегрева
1013.5 992.6
С 2 10 км 4/3 600 м
[Cu hum Ci fib]
+27.0 +25.3 90 +39 +39 очень
душно
1015.6 994.6 +31.4
Местоположение метеостанции Роти (Индонезия): широта -10.73 долгота 123.07 высота над уровнем моря 1 м.
В архиве по умолчанию представлена погода на Роти за последнюю неделю. Архивные данные за месяц целиком и за предыдущие месяцы, начиная с января 2011 года, Вы можете получить, выбрав интересующий диапазон дат из раскрывающегося списка и нажав кнопку "Найти!".
*Определитесь, кто Вы:
Внимание! Время в таблицах - всемирное. Для получения местного времени необходимо прибавить поправку, которая равна 8 ч.
Смотрите также архив погоды в соседних городах и на ближайших метеорологических станциях:
Партнеры нашего сайта:      
Пояснения к столбцам:
  • Ветер - указаны скорость ветра в м/с - средняя за 10 мин, порывы в срок и между сроками (в фигурных скобках) и направление, откуда дует ветер: С - северный,
  • СВ - северо-восточный, В - восточный, ЮВ - юго-восточный, Ю - южный, ЮЗ - юго-западный, З - западный, СЗ - северо-западный.
  • Видимость - горизонтальная дальность видимости в метрах или километрах. При видимости от 1 до 10 км при отсутствии осадков обычно наблюдается дымка, при ухудшении видимости до 1 км и менее - туман. В сухую погоду видимость может ухудшаться дымом, пылью или мглою.
  • Явления - указаны атмосферные явления, наблюдавшиеся в срок или в последний час перед сроком; фигурными скобками обозначены явления, наблюдавшиеся между сроками (за 1-3 часа до срока); квадратными скобками обозначены град или гололедные отложения с указанием их диаметра в мм.
  • Облачность - указаны через наклонную черту общая и нижняя облачность в баллах и высота нижней границы облаков в метрах; квадратными скобками обозначены формы облаков: Ci - перистые, Cs - перисто-слоистые, Cc - перисто-кучевые, Ac - высококучевые, As - высокослоистые, Sc - слоисто-кучевые, Ns - слоисто-дождевые, Cu - кучевые, Cb - кучево-дождевые. Подробнее классификацию облаков см. в Атласе облаков (PDF).
  • T - Температура воздуха - температура, измеренная на высоте 2 м над землей.
  • Td - Температура точки росы - температура, при понижении до которой содержащийся в воздухе водяной пар достигнет насыщения.
  • f - Относительная влажность воздуха - влажноcть воздуха, измеренная на высоте 2 м над землей.
  • Te - Эффективная температура - температура, которую ощущает одетый по сезону человек в тени. Характеристика душности погоды. При расчете учитывается влияние влажности воздуха и скорости ветра на теплоощущения человека.
  • Tes - Эффективная температура на солнце - температура, которую ощущает человек, с поправкой на солнечный нагрев. Характеристика знойности погоды. Зависит от высоты солнца над горизонтом, облачности и скорости ветра. Ночью, в пасмурную погоду, а также при ветре 12 м/с и более поправка равна нулю.
  • P - Атмосферное давление - приведенное к уровню моря атмосферное давление.
  • Po - Атмосферное давление - измеренное на уровне метеостанции атмосферное давление.
  • Tmin - Минимальная температура - минимум температуры воздуха на высоте 2 м над землей.
  • Tmax - Максимальная температура - максимум температуры воздуха на высоте 2 м над землей.
  • R - Количество осадков - Количество выпавших осадков за период времени, мм. При наведении курсора мыши на число - период времени, за который выпало указанное количество осадков.
  • R24 - Количество осадков - Количество выпавших осадков за 24 часа, мм.
  • S - Снежный покров - Высота снежного покрова, см. При наведении курсора мыши на число - состояние снежного покрова и степень покрытия местности в баллах.